Wind_Speed
24 23 23 22 21 20 19 20 19 18 17 14 13 12 12 12 12 9 16 8 8 7 15 14 11 9 12 9 7 11 5 5 6 8 9 4 8 4 5 4 4 3 5 7 6 10 1 10 11 4 5 5 9 3
23 21 22 21 20 18 17 17 18 17 16 14 12 11 11 10 9 7 10 3 7 6 10 22 21 19 11 2 6 4 7 13 4 5 5 6 6 1 12 4 9 7 14 12 6 5 3 2 4 7 9 5 3 6
21 21 20 20 19 17 17 18 18 17 16 14 12 11 10 10 8 7 10 12 11 9 12 14 14 20 12 10 7 4 4 10 5 4 4 7 5 8 8 11 11 25 2 1 6 5 8 9 7 4 5 6 5 5
20 20 20 20 18 17 19 19 18 19 15 13 11 10 9 9 8 7 9 12 8 7 5 12 15 7 7 8 6 8 10 7 7 5 5 6 6 6 6 8 4 5 2 1 2 9 8 3 4 4 4 5 3 8
19 19 19 19 18 17 15 16 17 17 14 12 10 9 9 9 9 9 12 13 10 6 5 9 18 9 8 12 7 9 10 8 5 5 5 6 7 7 4 5 6 8 9 6 5 8 6 6 5 2 2 2 2 3
17 18 19 18 17 15 15 16 17 15 14 11 9 9 8 8 7 6 5 11 7 7 4 4 7 6 1 3 8 9 8 7 5 5 5 6 4 4 4 7 11 7 7 13 6 11 7 6 6 9 4 6 4 4
17 18 17 17 17 15 16 17 17 16 13 10 9 8 8 6 6 6 4 3 2 3 3 4 4 7 6 8 8 6 9 6 5 6 6 8 1 2 4 10 13 6 9 7 6 6 5 6 5 7 4 9 8 7
17 16 17 17 16 17 17 19 18 16 12 9 8 7 6 5 9 9 6 6 5 7 4 4 6 4 9 7 6 6 5 5 4 6 3 6 6 3 4 8 8 6 6 3 5 7 7 5 4 2 3 3 7 4
16 17 17 17 17 18 19 20 19 15 11 8 6 3 2 4 4 4 4 4 4 5 4 4 8 5 6 8 5 6 3 6 4 7 9 5 7 7 6 8 5 1 1 4 4 5 7 4 3 3 4 3 4 11
16 17 17 17 18 20 22 22 19 14 10 7 4 6 4 6 5 4 2 4 5 5 4 5 9 4 4 6 7 6 5 7 6 9 5 8 11 10 6 9 4 4 1 4 7 4 6 3 5 8 11 10 10 10
16 16 17 19 21 23 23 23 19 16 10 4 4 1 5 6 4 4 4 4 6 5 6 7 11 6 3 4 5 4 2 4 7 7 5 7 10 8 14 9 7 4 5 5 7 5 10 3 11 11 11 9 11 11
16 17 19 22 25 25 27 24 21 12 7 4 2 1 4 3 3 4 4 4 6 7 4 9 9 7 2 3 3 1 4 1 4 2 4 8 3 8 9 9 7 5 5 7 6 9 15 14 14 11 11 10 11 11
17 19 23 25 25 27 25 23 23 10 8 2 2 3 2 3 1 5 7 4 5 3 2 5 6 4 3 4 1 2 2 4 6 3 6 2 8 7 8 8 8 6 5 11 11 13 12 12 12 11 10 9 10 10
18 23 26 26 28 26 23 22 19 13 1 2 3 2 5 5 6 6 7 4 3 3 5 5 5 5 3 5 2 3 2 3 3 5 11 5 8 8 8 8 9 9 8 9 10 10 10 10 9 10 9 8 9 8
22 25 28 29 28 25 23 24 16 4 2 3 4 4 7 4 5 5 4 2 1 3 2 3 2 2 5 3 2 3 3 4 5 6 4 6 7 5 7 7 10 11 9 7 10 10 10 9 9 8 8 7 7 5
33 30 18 27 25 22 22 19 8 1 3 3 4 4 2 3 6 4 2 4 1 2 4 3 3 2 2 2 4 7 4 2 3 6 4 7 9 8 4 6 11 13 13 12 12 9 9 7 8 9 6 5 5 4
14 9 26 26 24 22 21 7 4 3 4 3 4 3 7 3 3 5 7 4 5 1 1 1 3 3 2 3 3 2 5 2 4 4 6 7 7 8 8 7 8 8 9 11 10 7 7 7 8 7 5 1 3 3
16 29 26 26 28 18 3 1 2 3 5 5 5 6 5 2 1 1 4 1 3 4 3 2 1 5 1 1 1 3 3 8 7 3 4 5 7 9 10 10 13 3 3 8 8 6 5 5 5 6 6 5 6 8
30 27 25 27 11 5 3 2 2 3 5 3 4 2 3 3 4 2 6 2 3 1 3 0 3 3 3 5 1 5 3 2 6 8 7 10 12 12 12 14 16 15 14 12 11 11 12 11 9 6 9 10 8 3
25 24 24 12 5 2 3 2 3 3 3 2 2 3 3 4 3 5 5 5 4 4 3 1 3 2 4 6 1 1 3 5 3 8 7 8 12 11 12 13 14 15 11 11 15 13 10 10 8 7 3 5 3 1
16 13 11 2 1 4 2 3 4 0 2 2 4 3 3 4 4 5 6 6 5 5 6 4 5 3 2 3 5 7 5 3 6 4 3 4 6 9 10 9 14 15 20 17 9 12 14 12 9 10 10 4 7 4
8 7 2 1 2 0 1 2 2 2 2 1 4 2 4 5 5 6 6 7 8 6 8 6 4 3 5 5 4 4 4 1 6 3 3 6 4 5 6 2 9 4 8 7 6 12 7 9 28 3 7 6 4 5
8 3 2 6 3 2 2 5 3 4 2 3 3 4 4 2 0 3 2 4 6 5 5 6 5 3 3 3 2 4 5 6 7 10 10 8 12 13 16 17 14 7 8 13 15 15 11 14 23 9 5 5 5 5
2 2 2 2 4 2 5 5 4 5 4 4 5 4 4 3 7 4 5 7 6 7 8 3 2 4 5 4 5 8 11 12 12 11 11 13 10 13 13 11 15 9 12 16 15 11 13 11 6 9 8 8 9 6
1 1 4 3 3 4 5 5 5 5 4 7 5 3 3 3 4 4 4 5 6 7 7 6 5 4 5 4 5 8 9 9 9 6 10 11 12 13 14 17 16 14 13 9 7 20 19 9 5 11 6 5 6 5
2 3 2 3 4 3 3 4 6 4 1 3 5 4 5 2 2 1 3 6 8 7 6 5 4 1 4 7 5 3 4 4 2 6 8 9 11 9 7 7 8 8 5 6 1 15 7 16 17 16 15 13 12 12
1 1 1 1 2 1 2 0 1 1 2 2 2 2 2 2 4 1 4 4 4 6 4 3 9 5 2 3 6 5 8 10 4 5 6 8 9 11 8 7 8 7 8 6 9 13 19 11 9 13 15 15 18 15
2 3 1 1 1 2 1 1 1 1 1 1 1 3 2 2 2 3 3 5 6 6 5 6 7 8 10 8 3 10 10 7 8 5 9 9 5 4 3 2 3 6 7 10 7 4 11 12 14 15 14 14 16 17
1 2 2 3 1 2 2 2 1 2 3 1 3 3 3 2 3 4 6 6 5 4 6 9 9 10 10 11 10 13 14 10 5 8 7 3 5 2 5 7 2 6 8 10 6 9 13 13 11 11 10 11 6 9
3 2 1 2 3 4 2 1 1 3 3 3 2 2 3 4 8 7 6 6 6 8 10 11 12 16 16 13 11 12 11 13 4 2 4 2 11 11 9 6 6 8 13 13 14 14 12 10 9 10 12 13 10 11
2 2 3 2 3 4 3 3 1 0 1 1 3 5 5 3 5 2 2 9 11 7 8 13 14 9 7 10 4 7 8 4 11 3 6 4 4 2 7 1 4 13 12 12 8 11 14 11 7 7 9 14 26 25
3 3 3 3 3 4 3 2 3 3 5 4 4 4 2 2 2 2 13 6 8 13 6 9 11 10 8 4 3 12 9 11 11 7 11 9 8 6 15 3 10 9 6 16 7 6 5 6 7 4 1 13 11 8
4 5 5 3 5 7 6 4 2 2 2 1 1 2 2 1 3 2 13 20 7 17 11 8 20 12 19 15 13 12 10 7 8 8 6 5 5 7 6 6 4 8 5 4 5 1 8 19 4 1 4 2 7 16
Wind_Direction
261 261 259 258 256 264 259 254 243 246 246 251 264 280 294 302 314 321 279 263 279 297 296 294 320 327 331 12 17 332 185 237 202 243 254 89 39 325 28 222 143 18 3 261 235 272 168 352 354 335 81 91 31 24
258 255 256 252 251 258 254 242 237 239 238 244 254 272 287 294 304 303 279 225 267 264 294 313 293 286 287 7 316 355 300 297 359 215 74 60 135 207 223 242 155 180 197 253 348 19 165 129 48 31 16 63 97 26
254 252 248 247 246 250 240 242 242 235 230 235 245 263 278 286 290 272 290 311 296 264 277 253 249 252 236 223 232 261 223 347 3 20 349 178 193 203 195 210 187 217 168 287 327 16 27 47 63 63 339 326 92 139
250 245 244 242 242 244 247 242 230 224 223 226 239 262 266 281 283 277 268 293 298 282 286 270 176 193 236 247 246 265 295 305 301 310 293 268 263 203 314 333 343 1 102 244 276 267 276 222 233 333 99 3 66 73
246 242 238 240 235 244 238 225 215 209 214 220 234 255 265 282 286 279 268 260 260 280 320 317 305 190 200 234 239 250 255 274 276 275 265 275 288 323 310 303 302 308 313 259 248 63 2 55 33 134 354 183 307 128
241 236 238 228 231 235 223 209 202 203 208 219 231 250 266 285 293 290 217 203 233 255 281 271 238 162 200 336 245 237 239 254 263 279 282 289 81 13 305 281 297 264 41 48 26 15 10 346 316 298 173 234 204 118
234 236 229 223 226 222 211 204 197 199 205 217 227 244 266 275 272 273 348 343 214 313 246 251 240 165 203 224 224 217 220 245 254 251 246 270 293 136 272 265 276 8 70 51 8 336 307 270 272 236 222 133 87 81
234 222 218 222 218 208 202 196 193 194 200 211 223 246 262 265 276 262 239 240 199 261 271 263 260 164 180 216 212 217 200 224 220 251 243 233 153 216 259 264 275 61 55 18 295 276 261 331 215 162 174 136 132 202
224 219 218 214 205 199 195 189 187 185 195 200 217 225 285 233 245 72 149 188 230 287 299 235 243 236 146 228 221 175 248 218 223 217 242 211 228 227 220 246 299 112 37 333 266 271 255 219 203 207 161 201 65 54
215 213 213 203 196 192 186 183 178 181 182 182 169 208 201 109 124 138 180 194 205 203 223 258 265 218 241 198 219 185 182 244 226 209 228 237 245 244 228 179 170 122 159 314 299 237 262 209 264 82 71 72 63 55
213 210 199 192 187 182 179 174 172 165 152 172 222 54 74 136 194 219 206 229 189 215 203 229 252 288 337 267 225 191 211 220 235 236 219 228 239 240 224 151 148 202 234 264 278 309 28 50 69 79 84 64 77 64
208 200 191 183 180 178 175 172 167 163 172 191 302 239 158 209 229 237 196 229 219 223 219 199 212 236 172 353 279 15 256 320 247 233 163 246 85 94 117 134 150 180 202 217 226 75 67 50 71 81 71 67 68 72
199 190 182 179 177 175 171 170 170 155 151 121 259 205 191 191 189 222 203 207 211 230 107 197 172 210 105 242 205 223 289 210 314 242 226 187 132 130 128 128 130 157 162 94 82 84 81 72 56 75 91 84 89 86
187 179 176 175 172 168 167 167 165 165 135 194 179 238 213 197 213 212 230 246 126 203 155 178 180 207 176 194 119 234 19 246 234 257 247 109 140 144 139 132 132 129 116 110 105 105 99 89 86 82 78 84 92 93
173 170 169 167 163 164 164 165 163 156 270 237 202 206 213 248 246 202 121 123 166 24 200 87 205 295 193 206 151 91 224 228 228 248 96 135 137 133 156 143 114 106 102 114 128 113 109 116 105 98 97 94 94 95
151 141 145 159 155 157 156 153 146 17 263 253 252 247 313 222 236 216 211 173 127 176 78 40 61 30 220 196 224 200 227 240 55 65 88 126 132 148 202 89 101 92 89 90 82 96 101 98 119 126 115 124 124 105
122 121 150 145 142 140 137 125 161 229 264 252 214 246 288 231 29 47 74 48 325 86 257 161 197 154 190 247 228 246 251 48 63 38 36 92 129 141 132 109 108 122 139 143 134 149 142 147 144 145 150 170 123 141
115 141 143 142 141 134 89 109 257 245 236 223 243 176 233 178 314 274 118 129 265 277 90 234 264 201 236 197 197 66 66 87 125 144 151 106 115 120 123 105 87 54 250 164 160 165 171 166 183 180 176 198 217 210
139 142 145 147 134 119 119 201 257 288 236 291 240 26 226 193 107 328 320 90 250 295 320 100 240 210 133 242 28 118 67 222 143 142 135 131 137 152 161 164 177 200 194 190 189 195 200 199 236 202 193 178 241 122
135 141 155 147 125 133 130 193 222 259 252 201 251 182 217 277 199 205 238 250 229 222 187 85 299 328 69 60 67 182 75 359 202 155 169 157 156 171 181 182 196 198 209 211 208 215 192 192 217 223 246 53 336 210
124 145 160 146 245 212 218 174 190 296 288 220 225 197 242 247 256 217 221 232 213 226 232 234 148 90 340 341 15 55 60 66 4 111 177 117 85 306 82 280 165 176 199 210 223 211 234 233 217 192 161 218 235 234
120 137 106 35 292 339 127 263 138 316 267 324 161 215 263 210 221 232 233 215 219 229 253 279 119 178 221 231 248 246 64 118 245 127 160 169 216 165 192 201 318 130 164 222 272 299 114 309 314 177 191 197 198 246
118 112 189 218 200 135 191 172 205 173 251 193 189 188 216 236 212 23 270 263 261 258 247 272 291 281 285 302 331 309 275 241 268 279 281 251 242 231 223 224 221 198 239 248 208 200 188 165 241 192 222 187 252 229
108 240 224 210 176 196 160 197 203 193 200 194 203 206 192 184 157 203 232 228 220 187 199 202 239 259 257 261 279 264 254 252 265 272 275 281 280 281 274 263 257 249 263 275 200 182 161 151 237 221 222 193 216 230
148 288 139 287 254 184 173 186 196 194 190 193 199 237 138 138 210 224 233 185 172 165 163 163 207 244 265 265 210 198 195 242 257 260 259 255 266 273 272 270 275 277 280 301 75 135 137 121 253 176 271 263 343 330
57 190 163 234 168 182 199 193 190 177 267 207 182 151 178 213 296 287 48 41 62 58 63 41 12 73 42 345 299 304 29 308 279 276 274 268 269 272 289 269 256 270 39 70 128 63 327 166 177 173 170 172 214 232
46 38 355 220 259 134 252 55 17 333 287 76 23 57 38 210 223 173 97 43 69 68 73 15 303 288 248 305 310 335 345 326 302 318 325 318 309 311 306 350 351 328 309 240 257 221 220 201 205 189 182 190 210 228
2 348 69 152 24 279 304 88 177 233 176 122 230 196 221 304 24 35 346 321 277 258 262 259 259 266 262 244 255 311 289 260 300 9 80 297 266 259 293 34 320 269 248 243 205 183 157 165 172 183 191 205 233 252
179 120 285 187 313 270 221 238 243 72 346 308 335 358 10 2 286 268 273 274 265 248 253 232 212 210 223 225 229 247 252 110 7 298 302 220 109 1 248 251 355 178 168 156 143 148 161 160 176 186 218 256 232 163
167 162 246 194 235 219 162 103 30 45 25 16 352 277 264 234 249 242 254 259 260 243 223 200 176 182 185 190 206 208 180 156 214 166 315 249 138 178 193 169 128 143 164 172 175 166 161 173 211 236 241 220 224 236
304 225 233 241 259 270 7 9 19 96 66 250 235 256 264 325 320 284 193 258 252 232 155 149 179 181 71 69 68 78 49 136 322 149 208 31 67 126 184 158 151 182 190 202 230 197 179 198 228 45 11 354 5 338
187 202 212 234 223 188 166 196 177 219 195 206 201 206 248 182 197 339 6 34 75 24 89 54 40 88 93 282 67 96 89 263 303 15 26 41 33 285 315 62 140 208 200 152 130 156 144 189 216 146 210 351 268 303
206 191 223 248 197 170 176 162 115 68 36 100 223 200 252 10 1 336 109 82 158 246 262 181 203 191 164 166 172 167 136 95 69 43 30 54 48 35 47 355 253 347 5 141 119 249 202 267 125 247 184 166 206 207
Height
770 771 773 774 776 777 778 780 782 784 786 787 788 787 786 785 783 782 772 770 768 757 743 736 732 729 725 722 736 721 707 707 709 725 726 768 788 792 788 779 792 802 811 758 743 752 771 724 719 742 736 722 721 723
764 765 766 769 771 772 773 774 777 779 782 784 785 785 784 783 782 781 775 768 767 764 744 739 734 732 731 734 732 729 741 712 708 716 733 776 799 803 787 792 779 809 783 756 741 747 726 719 725 723 720 724 727 729
757 759 761 763 765 767 768 770 773 775 778 780 782 782 782 781 781 780 777 771 767 759 745 733 727 721 725 729 730 737 717 713 706 708 719 740 754 751 767 757 729 748 713 737 739 727 725 723 722 727 726 725 723 726
751 753 755 758 760 762 763 765 768 771 775 777 779 779 779 779 779 778 777 771 769 760 749 720 714 721 723 723 726 726 719 715 715 715 718 722 731 718 726 721 729 722 726 734 739 729 725 724 725 727 728 729 729 732
746 748 750 753 756 758 759 761 764 769 773 775 777 777 777 777 776 776 775 772 769 768 752 735 719 715 721 722 724 725 723 720 718 720 722 727 715 720 715 722 732 721 728 737 744 731 734 732 728 727 732 734 734 738
741 743 746 749 752 754 756 758 762 767 770 773 774 775 775 775 775 776 763 765 767 766 760 739 718 718 719 723 724 723 721 719 718 720 720 714 712 726 737 739 720 713 713 720 732 730 731 731 731 731 732 735 736 741
736 739 742 745 748 751 754 756 760 765 769 772 773 773 774 773 774 771 766 768 766 766 758 742 726 713 720 723 721 721 721 719 719 722 723 723 721 728 740 749 725 719 722 728 731 735 740 735 737 732 734 737 743 747
733 735 739 742 745 748 752 756 759 764 768 770 772 772 772 772 771 767 765 766 767 764 752 745 729 722 720 723 723 717 721 723 721 724 718 727 729 732 747 731 724 724 727 733 736 735 735 732 733 734 737 740 746 751
730 732 736 739 743 746 750 754 759 764 768 769 770 771 772 771 763 764 764 766 767 767 755 738 735 730 715 719 716 719 719 730 719 728 728 726 734 741 734 733 730 731 736 736 733 734 732 736 736 738 740 744 748 756
727 730 733 736 740 745 749 753 759 764 767 769 771 769 759 760 764 765 766 763 761 754 752 743 720 728 720 719 719 721 723 729 731 724 719 729 732 720 720 724 728 731 736 737 739 738 737 739 739 741 747 750 756 761
724 726 730 734 739 744 749 754 759 764 766 768 767 761 763 763 764 759 756 753 746 746 737 734 730 729 717 724 722 717 726 723 736 727 727 730 730 720 716 724 729 734 737 739 739 737 738 739 742 747 752 758 762 767
721 724 728 733 738 743 749 754 759 763 764 766 764 763 764 762 759 756 752 746 739 740 721 726 726 723 724 720 725 723 730 730 739 713 732 741 728 722 722 727 732 735 736 738 739 742 748 751 754 757 760 766 768 774
719 723 728 733 738 744 750 755 759 762 764 765 764 760 759 760 772 760 754 741 736 723 719 721 725 722 730 729 730 734 740 741 722 734 734 723 729 729 730 731 734 737 737 741 747 752 757 761 763 764 769 772 775 778
718 723 728 734 739 745 751 755 760 763 765 764 763 768 756 750 740 736 729 727 719 719 721 724 725 731 726 734 732 746 739 736 746 743 734 738 734 733 734 735 737 739 743 749 754 758 763 768 771 773 774 775 778 781
719 725 731 736 741 747 752 757 761 764 764 756 751 755 741 731 725 724 722 725 722 722 723 732 729 728 732 734 731 746 749 748 738 734 735 733 736 739 739 739 743 745 750 755 759 764 768 771 774 776 778 779 781 783
721 729 734 739 745 750 754 760 763 764 761 752 745 739 730 729 726 720 723 723 723 725 729 734 740 747 743 739 741 742 741 740 734 732 735 735 743 747 750 749 751 753 757 763 767 770 772 774 775 776 778 781 782 783
724 731 738 743 748 753 758 762 764 764 757 744 740 738 735 729 731 734 729 733 730 732 742 734 745 748 743 744 739 729 736 731 736 743 735 739 742 748 752 753 756 757 759 763 767 770 772 774 775 776 779 781 782 783
729 736 742 747 751 757 761 762 762 757 751 742 738 734 736 731 737 732 733 735 735 733 742 747 741 742 744 745 737 730 734 734 738 746 745 747 749 751 754 758 762 765 765 765 767 771 773 774 776 777 779 780 781 781
735 740 746 751 754 756 761 764 763 755 745 739 735 735 734 733 736 738 736 736 737 737 739 740 747 740 746 736 731 732 735 733 734 739 747 749 750 753 755 758 761 763 763 763 765 767 769 771 771 770 772 774 773 775
744 747 751 754 755 757 759 761 760 756 745 741 738 739 740 736 735 738 738 735 735 736 739 751 743 731 732 733 738 733 736 738 733 738 742 743 747 751 752 753 755 757 762 763 761 763 764 768 770 770 771 772 773 772
750 753 756 756 756 757 754 751 751 751 745 742 739 740 742 740 737 738 739 737 739 739 737 728 731 735 736 736 738 738 737 739 741 741 747 748 754 754 751 749 751 754 759 759 757 759 761 760 761 763 768 773 774 773
753 755 756 756 757 753 753 752 751 749 744 744 743 744 740 737 737 734 731 733 735 733 731 727 733 736 736 735 736 738 739 741 741 741 743 745 743 748 749 752 755 753 754 756 759 756 755 761 765 761 764 769 772 772
756 756 757 756 753 754 757 753 753 753 750 742 737 740 738 736 734 736 737 732 729 728 729 731 732 734 737 738 740 741 741 742 742 740 739 739 739 740 742 742 741 746 748 746 748 750 749 752 762 759 764 767 769 768
757 756 750 747 745 749 745 746 742 742 739 738 739 738 734 732 734 737 736 730 724 724 728 731 732 734 735 737 739 739 740 740 739 739 739 739 737 736 736 737 738 739 742 741 741 747 753 756 762 762 761 764 765 765
759 755 753 764 742 741 740 740 737 733 732 732 733 730 726 727 730 727 723 716 716 721 724 731 733 733 733 730 730 732 736 737 736 736 737 737 737 736 736 735 735 735 736 736 740 744 750 749 756 757 761 763 765 766
763 747 753 738 737 737 735 734 732 729 730 728 725 724 726 727 730 725 722 727 725 727 728 731 733 732 736 736 732 730 732 733 733 734 734 734 733 732 732 732 732 734 734 737 738 739 746 750 753 756 756 759 766 766
755 746 743 740 739 738 735 734 732 732 732 732 731 732 736 739 737 728 730 732 731 734 735 737 739 737 736 737 736 734 735 735 735 735 734 735 735 734 734 735 736 736 736 740 740 740 744 748 751 754 756 758 760 761
749 747 744 743 743 741 739 738 740 739 737 734 735 738 739 736 735 733 734 736 736 735 735 737 738 738 737 736 737 738 737 734 734 733 735 735 733 734 734 735 736 735 736 740 741 740 742 747 751 753 755 757 758 757
748 749 749 746 747 743 742 739 737 736 736 735 740 736 735 735 736 736 734 733 732 733 735 735 736 738 738 736 737 735 735 736 735 734 731 730 732 736 735 735 733 734 736 739 741 743 745 747 749 751 753 752 752 754
749 748 749 747 746 740 734 738 740 742 742 743 745 744 743 738 731 731 730 729 729 730 729 728 731 732 731 730 730 729 729 732 732 734 733 728 731 732 732 733 734 736 738 739 739 742 745 747 749 750 749 749 749 749
753 752 751 749 746 740 742 744 745 745 747 748 746 743 736 732 729 728 728 728 728 725 724 724 726 726 727 727 728 730 733 734 733 731 732 730 733 730 731 730 731 734 735 736 737 736 740 743 744 747 748 748 749 749
756 757 757 751 747 746 748 747 746 744 741 740 736 736 732 731 734 730 729 726 725 729 729 727 727 729 730 730 732 732 740 739 737 734 734 733 732 733 732 730 733 734 732 736 736 738 740 740 741 744 745 746 751 752
748 750 749 745 737 735 735 737 739 740 738 736 736 732 732 733 737 732 732 731 732 732 729 731 731 732 733 732 733 734 736 737 735 734 734 735 735 735 734 734 732 733 735 736 739 739 744 742 741 743 743 744 743 743